Location: Unspecified
(0.0000°N, 0.0000°E)
Time: 19:43:57
(UTC+00:00)

M-CUBED/EXP-1 PRIME - Visible Passes

Search period start: 24 October 2021 00:00
Search period end: 03 November 2021 00:00
Orbit: 427 x 655 km, 101.7° (Epoch: 24 October)

Date Brightness Start Highest point End Pass type
(mag) Time Alt. Az. Time Alt. Az. Time Alt. Az.
24 Oct ? 04:05:15 10° ENE 04:08:01 17° ESE 04:10:51 10° SSE visible
25 Oct ? 03:59:04 10° E 04:00:59 13° ESE 04:02:54 10° SE visible
27 Oct ? 05:16:24 10° N 05:20:32 53° WNW 05:24:54 10° SSW visible
28 Oct ? 05:09:11 10° N 05:13:27 74° WNW 05:17:55 10° SSW visible
29 Oct ? 05:02:03 10° NNE 05:06:22 82° ESE 05:10:51 10° SSW visible
30 Oct ? 04:55:00 10° NNE 04:59:16 60° ESE 05:03:42 10° S visible
31 Oct ? 04:48:01 10° NE 04:52:10 44° ESE 04:56:27 10° S visible
01 Nov ? 04:41:08 10° NE 04:45:04 32° ESE 04:49:06 10° S visible
02 Nov ? 04:34:21 10° NE 04:37:57 25° ESE 04:41:36 10° SSE visible
02 Nov ? 18:07:25 10° SW 18:08:33 11° WSW 18:09:39 10° W visible
